User: anonymous   Login
Location: Eindhoven
(51.4416°N, 5.4697°E)
Time: 00:20:17
(UTC+01:00)
Language:

Tiros 1 - Orbit

View from above orbital plane
View from above orbital plane
View from above satellite
View from above satellite

Ground track
Ground track

The orbit data is extracted from the following two-line orbital elements,

1    29U 60002B   19316.84986415 -.00000129  00000-0  11811-4 0  9993
2    29  48.3795 255.5345 0023985  20.1187 340.0665 14.74327731186552
Epoch (UTC): 12 November 2019 20:23:48
Eccentricity: 0.0023985
inclination: 48.3795°
perigee height: 630 km
apogee height: 664 km
right ascension of ascending node: 255.5345°
argument of perigee: 20.1187°
revolutions per day: 14.74327731
mean anomaly at epoch: 340.0665°
orbit number at epoch: 18655

The dashed part of the orbit path shows where the satellite is in the earth's shadow,  

DLR